owner,sensor,date,latitude,longitude,vertical_datum,sea_water_temperature,qcFlag 
TABS,ioos:station:wmo:42044:1,2017-01-05T00:00:00Z,26.1914,-97.0507,-2.0,20.47,11111222 
TABS,ioos:station:wmo:42044:1,2017-01-05T00:30:00Z,26.1914,-97.0507,-2.0,19.75,11111222 
TABS,ioos:station:wmo:42044:1,2017-01-05T01:00:00Z,26.1914,-97.0507,-2.0,19.76,11111222 
TABS,ioos:station:wmo:42044:1,2017-01-05T01:30:00Z,26.1914,-97.0507,-2.0,19.81,11111222 
TABS,ioos:station:wmo:42044:1,2017-01-05T02:00:00Z,26.1914,-97.0507,-2.0,20.1,11111222 
TABS,ioos:station:wmo:42044:1,2017-01-05T02:30:00Z,26.1914,-97.0507,-2.0,20.23,11111222 
TABS,ioos:station:wmo:42044:1,2017-01-05T03:00:00Z,26.1914,-97.0507,-2.0,20.38,11111222 
TABS,ioos:station:wmo:42044:1,2017-01-05T03:30:00Z,26.1914,-97.0507,-2.0,20.3,11111222 
TABS,ioos:station:wmo:42044:1,2017-01-05T04:00:00Z,26.1914,-97.0507,-2.0,20.09,11111222 
TABS,ioos:station:wmo:42044:1,2017-01-05T04:30:00Z,26.1914,-97.0507,-2.0,19.89,11111222 
TABS,ioos:station:wmo:42044:1,2017-01-05T05:00:00Z,26.1914,-97.0507,-2.0,19.61,11111222 
TABS,ioos:station:wmo:42044:1,2017-01-05T05:30:00Z,26.1914,-97.0507,-2.0,17.99,11111222 
TABS,ioos:station:wmo:42044:1,2017-01-05T06:00:00Z,26.1914,-97.0507,-2.0,17.9,11111222 
TABS,ioos:station:wmo:42044:1,2017-01-05T06:30:00Z,26.1914,-97.0507,-2.0,17.89,11111222 
TABS,ioos:station:wmo:42044:1,2017-01-05T07:00:00Z,26.1914,-97.0507,-2.0,17.88,11111222 
TABS,ioos:station:wmo:42044:1,2017-01-05T07:30:00Z,26.1914,-97.0507,-2.0,17.88,11111222 
TABS,ioos:station:wmo:42044:1,2017-01-05T08:00:00Z,26.1914,-97.0507,-2.0,17.87,11111222 
TABS,ioos:station:wmo:42044:1,2017-01-05T08:30:00Z,26.1914,-97.0507,-2.0,17.88,11111222 
TABS,ioos:station:wmo:42044:1,2017-01-05T09:00:00Z,26.1914,-97.0507,-2.0,17.88,11111222 
TABS,ioos:station:wmo:42044:1,2017-01-05T09:30:00Z,26.1914,-97.0507,-2.0,17.89,11111222 
TABS,ioos:station:wmo:42044:1,2017-01-05T10:00:00Z,26.1914,-97.0507,-2.0,17.89,11111222 
TABS,ioos:station:wmo:42044:1,2017-01-05T10:30:00Z,26.1914,-97.0507,-2.0,17.89,11111222 
TABS,ioos:station:wmo:42044:1,2017-01-05T11:00:00Z,26.1914,-97.0507,-2.0,17.88,11111222 
TABS,ioos:station:wmo:42044:1,2017-01-05T11:30:00Z,26.1914,-97.0507,-2.0,17.87,11111222 
TABS,ioos:station:wmo:42044:1,2017-01-05T12:00:00Z,26.1914,-97.0507,-2.0,17.85,11111222 
TABS,ioos:station:wmo:42044:1,2017-01-05T12:30:00Z,26.1914,-97.0507,-2.0,17.85,11111222 
TABS,ioos:station:wmo:42044:1,2017-01-05T13:00:00Z,26.1914,-97.0507,-2.0,17.86,11111222 
TABS,ioos:station:wmo:42044:1,2017-01-05T13:30:00Z,26.1914,-97.0507,-2.0,17.88,11111222 
TABS,ioos:station:wmo:42044:1,2017-01-05T14:00:00Z,26.1914,-97.0507,-2.0,17.86,11111222 
TABS,ioos:station:wmo:42044:1,2017-01-05T14:30:00Z,26.1914,-97.0507,-2.0,17.83,11111222 
TABS,ioos:station:wmo:42044:1,2017-01-05T15:00:00Z,26.1914,-97.0507,-2.0,17.85,11111222 
TABS,ioos:station:wmo:42044:1,2017-01-05T15:30:00Z,26.1914,-97.0507,-2.0,17.86,11111222 
TABS,ioos:station:wmo:42044:1,2017-01-05T16:00:00Z,26.1914,-97.0507,-2.0,17.89,11111222 
TABS,ioos:station:wmo:42044:1,2017-01-05T16:30:00Z,26.1914,-97.0507,-2.0,17.9,11111222 
TABS,ioos:station:wmo:42044:1,2017-01-05T17:00:00Z,26.1914,-97.0507,-2.0,17.92,11111222 
TABS,ioos:station:wmo:42044:1,2017-01-05T17:30:00Z,26.1914,-97.0507,-2.0,17.95,11111222 
TABS,ioos:station:wmo:42044:1,2017-01-05T18:00:00Z,26.1914,-97.0507,-2.0,18.0,11111222 
TABS,ioos:station:wmo:42044:1,2017-01-05T18:30:00Z,26.1914,-97.0507,-2.0,18.03,11111222 
TABS,ioos:station:wmo:42044:1,2017-01-05T19:00:00Z,26.1914,-97.0507,-2.0,18.08,11111222 
TABS,ioos:station:wmo:42044:1,2017-01-05T19:30:00Z,26.1914,-97.0507,-2.0,18.11,11111222 
TABS,ioos:station:wmo:42044:1,2017-01-05T20:00:00Z,26.1914,-97.0507,-2.0,18.12,11111222 
TABS,ioos:station:wmo:42044:1,2017-01-05T20:30:00Z,26.1914,-97.0507,-2.0,18.14,11111222 
TABS,ioos:station:wmo:42044:1,2017-01-05T21:00:00Z,26.1914,-97.0507,-2.0,18.17,11111222 
TABS,ioos:station:wmo:42044:1,2017-01-05T21:30:00Z,26.1914,-97.0507,-2.0,18.2,11111222 
TABS,ioos:station:wmo:42044:1,2017-01-05T22:00:00Z,26.1914,-97.0507,-2.0,18.21,11111222 
TABS,ioos:station:wmo:42044:1,2017-01-05T22:30:00Z,26.1914,-97.0507,-2.0,18.25,11111222 
TABS,ioos:station:wmo:42044:1,2017-01-05T23:00:00Z,26.1914,-97.0507,-2.0,18.28,11111222 
TABS,ioos:station:wmo:42044:1,2017-01-05T23:30:00Z,26.1914,-97.0507,-2.0,18.42,11111222 
TABS,ioos:station:wmo:42044:1,2017-01-06T00:00:00Z,26.1914,-97.0507,-2.0,18.52,11111222 
TABS,ioos:station:wmo:42044:1,2017-01-06T00:30:00Z,26.1914,-97.0507,-2.0,18.47,11111222 
TABS,ioos:station:wmo:42044:1,2017-01-06T01:00:00Z,26.1914,-97.0507,-2.0,18.45,11111222 
TABS,ioos:station:wmo:42044:1,2017-01-06T01:30:00Z,26.1914,-97.0507,-2.0,18.4,11111222 
TABS,ioos:station:wmo:42044:1,2017-01-06T02:00:00Z,26.1914,-97.0507,-2.0,18.35,11111222 
TABS,ioos:station:wmo:42044:1,2017-01-06T02:30:00Z,26.1914,-97.0507,-2.0,18.31,11111222 
TABS,ioos:station:wmo:42044:1,2017-01-06T03:00:00Z,26.1914,-97.0507,-2.0,18.28,11111222 
TABS,ioos:station:wmo:42044:1,2017-01-06T03:30:00Z,26.1914,-97.0507,-2.0,18.22,11111222 
TABS,ioos:station:wmo:42044:1,2017-01-06T04:00:00Z,26.1914,-97.0507,-2.0,18.18,11111222 
TABS,ioos:station:wmo:42044:1,2017-01-06T04:30:00Z,26.1914,-97.0507,-2.0,18.15,11111222 
TABS,ioos:station:wmo:42044:1,2017-01-06T05:00:00Z,26.1914,-97.0507,-2.0,18.13,11111222 
TABS,ioos:station:wmo:42044:1,2017-01-06T05:30:00Z,26.1914,-97.0507,-2.0,18.12,11111222 
TABS,ioos:station:wmo:42044:1,2017-01-06T06:00:00Z,26.1914,-97.0507,-2.0,18.1,11111222 
TABS,ioos:station:wmo:42044:1,2017-01-06T06:30:00Z,26.1914,-97.0507,-2.0,18.09,11111222 
TABS,ioos:station:wmo:42044:1,2017-01-06T07:00:00Z,26.1914,-97.0507,-2.0,18.1,11111222 
TABS,ioos:station:wmo:42044:1,2017-01-06T07:30:00Z,26.1914,-97.0507,-2.0,18.1,11111222 
TABS,ioos:station:wmo:42044:1,2017-01-06T08:00:00Z,26.1914,-97.0507,-2.0,18.07,11111222 
TABS,ioos:station:wmo:42044:1,2017-01-06T08:30:00Z,26.1914,-97.0507,-2.0,18.07,11111222 
TABS,ioos:station:wmo:42044:1,2017-01-06T09:00:00Z,26.1914,-97.0507,-2.0,18.14,11111222 
TABS,ioos:station:wmo:42044:1,2017-01-06T09:30:00Z,26.1914,-97.0507,-2.0,18.18,11111222 
TABS,ioos:station:wmo:42044:1,2017-01-06T10:00:00Z,26.1914,-97.0507,-2.0,18.13,11111222 
TABS,ioos:station:wmo:42044:1,2017-01-06T10:30:00Z,26.1914,-97.0507,-2.0,18.03,11111222 
TABS,ioos:station:wmo:42044:1,2017-01-06T11:00:00Z,26.1914,-97.0507,-2.0,17.94,11111222 
TABS,ioos:station:wmo:42044:1,2017-01-06T11:30:00Z,26.1914,-97.0507,-2.0,17.87,11111222 
TABS,ioos:station:wmo:42044:1,2017-01-06T12:00:00Z,26.1914,-97.0507,-2.0,17.79,11111222 
TABS,ioos:station:wmo:42044:1,2017-01-06T12:30:00Z,26.1914,-97.0507,-2.0,17.81,11111222 
TABS,ioos:station:wmo:42044:1,2017-01-06T13:00:00Z,26.1914,-97.0507,-2.0,17.83,11111222 
TABS,ioos:station:wmo:42044:1,2017-01-06T13:30:00Z,26.1914,-97.0507,-2.0,17.85,11111222 
TABS,ioos:station:wmo:42044:1,2017-01-06T14:00:00Z,26.1914,-97.0507,-2.0,17.83,11111222 
TABS,ioos:station:wmo:42044:1,2017-01-06T14:30:00Z,26.1914,-97.0507,-2.0,17.79,11111222 
TABS,ioos:station:wmo:42044:1,2017-01-06T15:00:00Z,26.1914,-97.0507,-2.0,17.79,11111222 
TABS,ioos:station:wmo:42044:1,2017-01-06T15:30:00Z,26.1914,-97.0507,-2.0,17.83,11111222 
TABS,ioos:station:wmo:42044:1,2017-01-06T16:00:00Z,26.1914,-97.0507,-2.0,17.83,11111222 
TABS,ioos:station:wmo:42044:1,2017-01-06T16:30:00Z,26.1914,-97.0507,-2.0,17.84,11111222 
TABS,ioos:station:wmo:42044:1,2017-01-06T17:00:00Z,26.1914,-97.0507,-2.0,17.85,11111222 
TABS,ioos:station:wmo:42044:1,2017-01-06T17:30:00Z,26.1914,-97.0507,-2.0,17.86,11111222 
TABS,ioos:station:wmo:42044:1,2017-01-06T18:00:00Z,26.1914,-97.0507,-2.0,17.86,11111222 
TABS,ioos:station:wmo:42044:1,2017-01-06T18:30:00Z,26.1914,-97.0507,-2.0,17.86,11111222 
TABS,ioos:station:wmo:42044:1,2017-01-06T19:00:00Z,26.1914,-97.0507,-2.0,17.94,11111222 
TABS,ioos:station:wmo:42044:1,2017-01-06T19:30:00Z,26.1914,-97.0507,-2.0,17.85,11111222 
TABS,ioos:station:wmo:42044:1,2017-01-06T20:00:00Z,26.1914,-97.0507,-2.0,17.82,11111222 
TABS,ioos:station:wmo:42044:1,2017-01-06T20:30:00Z,26.1914,-97.0507,-2.0,18.16,11111222 
TABS,ioos:station:wmo:42044:1,2017-01-06T21:00:00Z,26.1914,-97.0507,-2.0,18.18,11111222 
TABS,ioos:station:wmo:42044:1,2017-01-06T21:30:00Z,26.1914,-97.0507,-2.0,18.65,11111222 
TABS,ioos:station:wmo:42044:1,2017-01-06T22:00:00Z,26.1914,-97.0507,-2.0,18.61,11111222 
TABS,ioos:station:wmo:42044:1,2017-01-06T22:30:00Z,26.1914,-97.0507,-2.0,18.58,11111222 
TABS,ioos:station:wmo:42044:1,2017-01-06T23:00:00Z,26.1914,-97.0507,-2.0,18.57,11111222 
TABS,ioos:station:wmo:42044:1,2017-01-06T23:30:00Z,26.1914,-97.0507,-2.0,18.55,11111222 
TABS,ioos:station:wmo:42044:1,2017-01-07T00:00:00Z,26.1914,-97.0507,-2.0,18.52,11111222 
TABS,ioos:station:wmo:42044:1,2017-01-07T00:30:00Z,26.1914,-97.0507,-2.0,18.45,11111222 
TABS,ioos:station:wmo:42044:1,2017-01-07T01:00:00Z,26.1914,-97.0507,-2.0,18.45,11111222 
TABS,ioos:station:wmo:42044:1,2017-01-07T01:30:00Z,26.1914,-97.0507,-2.0,18.5,11111222 
TABS,ioos:station:wmo:42044:1,2017-01-07T02:00:00Z,26.1914,-97.0507,-2.0,18.66,11111222 
TABS,ioos:station:wmo:42044:1,2017-01-07T02:30:00Z,26.1914,-97.0507,-2.0,18.7,11111222 
TABS,ioos:station:wmo:42044:1,2017-01-07T03:00:00Z,26.1914,-97.0507,-2.0,18.68,11111222 
TABS,ioos:station:wmo:42044:1,2017-01-07T03:30:00Z,26.1914,-97.0507,-2.0,18.61,11111222 
TABS,ioos:station:wmo:42044:1,2017-01-07T04:00:00Z,26.1914,-97.0507,-2.0,18.5,11111222 
TABS,ioos:station:wmo:42044:1,2017-01-07T04:30:00Z,26.1914,-97.0507,-2.0,18.41,11111222 
TABS,ioos:station:wmo:42044:1,2017-01-07T05:00:00Z,26.1914,-97.0507,-2.0,18.37,11111222 
TABS,ioos:station:wmo:42044:1,2017-01-07T05:30:00Z,26.1914,-97.0507,-2.0,18.3,11111222 
TABS,ioos:station:wmo:42044:1,2017-01-07T06:00:00Z,26.1914,-97.0507,-2.0,18.22,11111222 
TABS,ioos:station:wmo:42044:1,2017-01-07T06:30:00Z,26.1914,-97.0507,-2.0,18.14,11111222 
TABS,ioos:station:wmo:42044:1,2017-01-07T07:00:00Z,26.1914,-97.0507,-2.0,18.03,11111222 
TABS,ioos:station:wmo:42044:1,2017-01-07T07:30:00Z,26.1914,-97.0507,-2.0,17.95,11111222 
TABS,ioos:station:wmo:42044:1,2017-01-07T08:00:00Z,26.1914,-97.0507,-2.0,17.88,11111222 
TABS,ioos:station:wmo:42044:1,2017-01-07T08:30:00Z,26.1914,-97.0507,-2.0,17.83,11111222 
TABS,ioos:station:wmo:42044:1,2017-01-07T09:00:00Z,26.1914,-97.0507,-2.0,17.75,11111222 
TABS,ioos:station:wmo:42044:1,2017-01-07T09:30:00Z,26.1914,-97.0507,-2.0,17.69,11111222 
TABS,ioos:station:wmo:42044:1,2017-01-07T10:00:00Z,26.1914,-97.0507,-2.0,17.63,11111222 
TABS,ioos:station:wmo:42044:1,2017-01-07T10:30:00Z,26.1914,-97.0507,-2.0,17.56,11111222 
TABS,ioos:station:wmo:42044:1,2017-01-07T11:00:00Z,26.1914,-97.0507,-2.0,17.48,11111222 
TABS,ioos:station:wmo:42044:1,2017-01-07T11:30:00Z,26.1914,-97.0507,-2.0,17.39,11111222 
TABS,ioos:station:wmo:42044:1,2017-01-07T12:00:00Z,26.1914,-97.0507,-2.0,17.28,11111222 
TABS,ioos:station:wmo:42044:1,2017-01-07T12:30:00Z,26.1914,-97.0507,-2.0,17.26,11111222 
TABS,ioos:station:wmo:42044:1,2017-01-07T13:00:00Z,26.1914,-97.0507,-2.0,17.24,11111222 
TABS,ioos:station:wmo:42044:1,2017-01-07T13:30:00Z,26.1914,-97.0507,-2.0,17.26,11111222 
TABS,ioos:station:wmo:42044:1,2017-01-07T14:00:00Z,26.1914,-97.0507,-2.0,17.4,11111222 
TABS,ioos:station:wmo:42044:1,2017-01-07T14:30:00Z,26.1914,-97.0507,-2.0,17.4,11111222 
TABS,ioos:station:wmo:42044:1,2017-01-07T15:00:00Z,26.1914,-97.0507,-2.0,17.42,11111222 
TABS,ioos:station:wmo:42044:1,2017-01-07T15:30:00Z,26.1914,-97.0507,-2.0,17.36,11111222 
TABS,ioos:station:wmo:42044:1,2017-01-07T16:00:00Z,26.1914,-97.0507,-2.0,17.3,11111222 
TABS,ioos:station:wmo:42044:1,2017-01-07T16:30:00Z,26.1914,-97.0507,-2.0,17.26,11111222 
TABS,ioos:station:wmo:42044:1,2017-01-07T17:00:00Z,26.1914,-97.0507,-2.0,17.21,11111222 
TABS,ioos:station:wmo:42044:1,2017-01-07T17:30:00Z,26.1914,-97.0507,-2.0,17.13,11111222 
TABS,ioos:station:wmo:42044:1,2017-01-07T18:00:00Z,26.1914,-97.0507,-2.0,17.08,11111222 
TABS,ioos:station:wmo:42044:1,2017-01-07T18:30:00Z,26.1914,-97.0507,-2.0,17.01,11111222 
TABS,ioos:station:wmo:42044:1,2017-01-07T19:00:00Z,26.1914,-97.0507,-2.0,16.95,11111222 
TABS,ioos:station:wmo:42044:1,2017-01-07T19:30:00Z,26.1914,-97.0507,-2.0,16.86,11111222 
TABS,ioos:station:wmo:42044:1,2017-01-07T20:00:00Z,26.1914,-97.0507,-2.0,16.81,11111222 
TABS,ioos:station:wmo:42044:1,2017-01-07T20:30:00Z,26.1914,-97.0507,-2.0,16.78,11111222 
TABS,ioos:station:wmo:42044:1,2017-01-07T21:00:00Z,26.1914,-97.0507,-2.0,16.65,11111222 
TABS,ioos:station:wmo:42044:1,2017-01-07T21:30:00Z,26.1914,-97.0507,-2.0,16.62,11111222 
TABS,ioos:station:wmo:42044:1,2017-01-07T22:00:00Z,26.1914,-97.0507,-2.0,16.56,11111222 
TABS,ioos:station:wmo:42044:1,2017-01-07T22:30:00Z,26.1914,-97.0507,-2.0,16.56,11111222 
TABS,ioos:station:wmo:42044:1,2017-01-07T23:00:00Z,26.1914,-97.0507,-2.0,16.55,11111222 
TABS,ioos:station:wmo:42044:1,2017-01-07T23:30:00Z,26.1914,-97.0507,-2.0,16.53,11111222 
TABS,ioos:station:wmo:42044:1,2017-01-08T00:00:00Z,26.1914,-97.0507,-2.0,16.66,11111222 
TABS,ioos:station:wmo:42044:1,2017-01-08T00:30:00Z,26.1914,-97.0507,-2.0,16.87,11111222 
TABS,ioos:station:wmo:42044:1,2017-01-08T01:00:00Z,26.1914,-97.0507,-2.0,16.96,11111222 
TABS,ioos:station:wmo:42044:1,2017-01-08T01:30:00Z,26.1914,-97.0507,-2.0,16.98,11111222 
TABS,ioos:station:wmo:42044:1,2017-01-08T02:00:00Z,26.1914,-97.0507,-2.0,16.95,11111222 
TABS,ioos:station:wmo:42044:1,2017-01-08T02:30:00Z,26.1914,-97.0507,-2.0,16.87,11111222 
TABS,ioos:station:wmo:42044:1,2017-01-08T03:00:00Z,26.1914,-97.0507,-2.0,16.82,11111222 
TABS,ioos:station:wmo:42044:1,2017-01-08T03:30:00Z,26.1914,-97.0507,-2.0,16.83,11111222 
TABS,ioos:station:wmo:42044:1,2017-01-08T04:00:00Z,26.1914,-97.0507,-2.0,16.83,11111222 
TABS,ioos:station:wmo:42044:1,2017-01-08T04:30:00Z,26.1914,-97.0507,-2.0,16.83,11111222 
TABS,ioos:station:wmo:42044:1,2017-01-08T05:00:00Z,26.1914,-97.0507,-2.0,16.7,11111222 
TABS,ioos:station:wmo:42044:1,2017-01-08T05:30:00Z,26.1914,-97.0507,-2.0,16.73,11111222 
TABS,ioos:station:wmo:42044:1,2017-01-08T06:00:00Z,26.1914,-97.0507,-2.0,16.59,11111222 
TABS,ioos:station:wmo:42044:1,2017-01-08T06:30:00Z,26.1914,-97.0507,-2.0,16.57,11111222 
TABS,ioos:station:wmo:42044:1,2017-01-08T07:00:00Z,26.1914,-97.0507,-2.0,16.58,11111222 
TABS,ioos:station:wmo:42044:1,2017-01-08T07:30:00Z,26.1914,-97.0507,-2.0,16.53,11111222 
TABS,ioos:station:wmo:42044:1,2017-01-08T08:00:00Z,26.1914,-97.0507,-2.0,16.57,11111222 
TABS,ioos:station:wmo:42044:1,2017-01-08T08:30:00Z,26.1914,-97.0507,-2.0,16.54,11111222 
TABS,ioos:station:wmo:42044:1,2017-01-08T09:00:00Z,26.1914,-97.0507,-2.0,16.45,11111222 
TABS,ioos:station:wmo:42044:1,2017-01-08T09:30:00Z,26.1914,-97.0507,-2.0,16.42,11111222 
TABS,ioos:station:wmo:42044:1,2017-01-08T10:00:00Z,26.1914,-97.0507,-2.0,16.47,11111222 
TABS,ioos:station:wmo:42044:1,2017-01-08T10:30:00Z,26.1914,-97.0507,-2.0,16.48,11111222 
TABS,ioos:station:wmo:42044:1,2017-01-08T11:00:00Z,26.1914,-97.0507,-2.0,16.31,11111222 
TABS,ioos:station:wmo:42044:1,2017-01-08T11:30:00Z,26.1914,-97.0507,-2.0,16.35,11111222 
TABS,ioos:station:wmo:42044:1,2017-01-08T12:00:00Z,26.1914,-97.0507,-2.0,16.32,11111222 
TABS,ioos:station:wmo:42044:1,2017-01-08T12:30:00Z,26.1914,-97.0507,-2.0,16.29,11111222 
TABS,ioos:station:wmo:42044:1,2017-01-08T13:00:00Z,26.1914,-97.0507,-2.0,16.27,11111222 
TABS,ioos:station:wmo:42044:1,2017-01-08T13:30:00Z,26.1914,-97.0507,-2.0,16.29,11111222 
TABS,ioos:station:wmo:42044:1,2017-01-08T14:00:00Z,26.1914,-97.0507,-2.0,16.27,11111222 
TABS,ioos:station:wmo:42044:1,2017-01-08T14:30:00Z,26.1914,-97.0507,-2.0,16.31,11111222 
TABS,ioos:station:wmo:42044:1,2017-01-08T15:00:00Z,26.1914,-97.0507,-2.0,16.28,11111222 
TABS,ioos:station:wmo:42044:1,2017-01-08T15:30:00Z,26.1914,-97.0507,-2.0,16.32,11111222 
TABS,ioos:station:wmo:42044:1,2017-01-08T16:00:00Z,26.1914,-97.0507,-2.0,16.38,11111222 
TABS,ioos:station:wmo:42044:1,2017-01-08T16:30:00Z,26.1914,-97.0507,-2.0,16.43,11111222 
TABS,ioos:station:wmo:42044:1,2017-01-08T17:00:00Z,26.1914,-97.0507,-2.0,16.45,11111222 
TABS,ioos:station:wmo:42044:1,2017-01-08T17:30:00Z,26.1914,-97.0507,-2.0,16.43,11111222 
TABS,ioos:station:wmo:42044:1,2017-01-08T18:00:00Z,26.1914,-97.0507,-2.0,16.4,11111222 
TABS,ioos:station:wmo:42044:1,2017-01-08T18:30:00Z,26.1914,-97.0507,-2.0,16.56,11111222 
TABS,ioos:station:wmo:42044:1,2017-01-08T19:00:00Z,26.1914,-97.0507,-2.0,16.74,11111222 
TABS,ioos:station:wmo:42044:1,2017-01-08T19:30:00Z,26.1914,-97.0507,-2.0,16.92,11111222 
TABS,ioos:station:wmo:42044:1,2017-01-08T20:00:00Z,26.1914,-97.0507,-2.0,16.77,11111222 
TABS,ioos:station:wmo:42044:1,2017-01-08T20:30:00Z,26.1914,-97.0507,-2.0,17.1,11111222 
TABS,ioos:station:wmo:42044:1,2017-01-08T21:00:00Z,26.1914,-97.0507,-2.0,17.1,11111222 
TABS,ioos:station:wmo:42044:1,2017-01-08T21:30:00Z,26.1914,-97.0507,-2.0,17.08,11111222 
TABS,ioos:station:wmo:42044:1,2017-01-08T22:00:00Z,26.1914,-97.0507,-2.0,17.01,11111222 
TABS,ioos:station:wmo:42044:1,2017-01-08T22:30:00Z,26.1914,-97.0507,-2.0,16.97,11111222 
TABS,ioos:station:wmo:42044:1,2017-01-08T23:00:00Z,26.1914,-97.0507,-2.0,16.88,11111222 
TABS,ioos:station:wmo:42044:1,2017-01-08T23:30:00Z,26.1914,-97.0507,-2.0,16.8,11111222 
TABS,ioos:station:wmo:42044:1,2017-01-09T00:00:00Z,26.1914,-97.0507,-2.0,16.82,11111222 
TABS,ioos:station:wmo:42044:1,2017-01-09T00:30:00Z,26.1914,-97.0507,-2.0,16.68,11111222 
TABS,ioos:station:wmo:42044:1,2017-01-09T01:00:00Z,26.1914,-97.0507,-2.0,16.59,11111222 
TABS,ioos:station:wmo:42044:1,2017-01-09T01:30:00Z,26.1914,-97.0507,-2.0,16.58,11111222 
TABS,ioos:station:wmo:42044:1,2017-01-09T02:00:00Z,26.1914,-97.0507,-2.0,16.57,11111222 
TABS,ioos:station:wmo:42044:1,2017-01-09T02:30:00Z,26.1914,-97.0507,-2.0,16.48,11111222 
TABS,ioos:station:wmo:42044:1,2017-01-09T03:00:00Z,26.1914,-97.0507,-2.0,16.38,11111222 
TABS,ioos:station:wmo:42044:1,2017-01-09T03:30:00Z,26.1914,-97.0507,-2.0,16.34,11111222 
TABS,ioos:station:wmo:42044:1,2017-01-09T04:00:00Z,26.1914,-97.0507,-2.0,16.29,11111222 
TABS,ioos:station:wmo:42044:1,2017-01-09T04:30:00Z,26.1914,-97.0507,-2.0,16.2,11111222 
TABS,ioos:station:wmo:42044:1,2017-01-09T05:00:00Z,26.1914,-97.0507,-2.0,16.11,11111222 
TABS,ioos:station:wmo:42044:1,2017-01-09T05:30:00Z,26.1914,-97.0507,-2.0,16.09,11111222 
TABS,ioos:station:wmo:42044:1,2017-01-09T06:00:00Z,26.1914,-97.0507,-2.0,16.07,11111222 
TABS,ioos:station:wmo:42044:1,2017-01-09T06:30:00Z,26.1914,-97.0507,-2.0,16.09,11111222 
TABS,ioos:station:wmo:42044:1,2017-01-09T07:00:00Z,26.1914,-97.0507,-2.0,16.07,11111222 
TABS,ioos:station:wmo:42044:1,2017-01-09T07:30:00Z,26.1914,-97.0507,-2.0,16.05,11111222 
TABS,ioos:station:wmo:42044:1,2017-01-09T08:00:00Z,26.1914,-97.0507,-2.0,16.01,11111222 
TABS,ioos:station:wmo:42044:1,2017-01-09T08:30:00Z,26.1914,-97.0507,-2.0,15.95,11111222 
TABS,ioos:station:wmo:42044:1,2017-01-09T09:00:00Z,26.1914,-97.0507,-2.0,15.93,11111222 
TABS,ioos:station:wmo:42044:1,2017-01-09T09:30:00Z,26.1914,-97.0507,-2.0,15.91,11111222 
TABS,ioos:station:wmo:42044:1,2017-01-09T10:00:00Z,26.1914,-97.0507,-2.0,15.86,11111222 
TABS,ioos:station:wmo:42044:1,2017-01-09T10:30:00Z,26.1914,-97.0507,-2.0,15.81,11111222 
TABS,ioos:station:wmo:42044:1,2017-01-09T11:00:00Z,26.1914,-97.0507,-2.0,15.8,11111222 
TABS,ioos:station:wmo:42044:1,2017-01-09T11:30:00Z,26.1914,-97.0507,-2.0,15.76,11111222 
TABS,ioos:station:wmo:42044:1,2017-01-09T12:00:00Z,26.1914,-97.0507,-2.0,15.69,11111222 
TABS,ioos:station:wmo:42044:1,2017-01-09T12:30:00Z,26.1914,-97.0507,-2.0,15.6,11111222 
TABS,ioos:station:wmo:42044:1,2017-01-09T13:00:00Z,26.1914,-97.0507,-2.0,15.6,11111222 
TABS,ioos:station:wmo:42044:1,2017-01-09T13:30:00Z,26.1914,-97.0507,-2.0,15.58,11111222 
TABS,ioos:station:wmo:42044:1,2017-01-09T14:00:00Z,26.1914,-97.0507,-2.0,15.6,11111222 
TABS,ioos:station:wmo:42044:1,2017-01-09T14:30:00Z,26.1914,-97.0507,-2.0,15.6,11111222 
TABS,ioos:station:wmo:42044:1,2017-01-09T15:00:00Z,26.1914,-97.0507,-2.0,15.6,11111222 
TABS,ioos:station:wmo:42044:1,2017-01-09T15:30:00Z,26.1914,-97.0507,-2.0,15.61,11111222 
TABS,ioos:station:wmo:42044:1,2017-01-09T16:00:00Z,26.1914,-97.0507,-2.0,15.66,11111222 
TABS,ioos:station:wmo:42044:1,2017-01-09T16:30:00Z,26.1914,-97.0507,-2.0,15.66,11111222 
TABS,ioos:station:wmo:42044:1,2017-01-09T17:00:00Z,26.1914,-97.0507,-2.0,15.71,11111222 
TABS,ioos:station:wmo:42044:1,2017-01-09T17:30:00Z,26.1914,-97.0507,-2.0,16.0,11111222 
TABS,ioos:station:wmo:42044:1,2017-01-09T18:00:00Z,26.1914,-97.0507,-2.0,15.7,11111222 
TABS,ioos:station:wmo:42044:1,2017-01-09T18:30:00Z,26.1914,-97.0507,-2.0,15.86,11111222 
TABS,ioos:station:wmo:42044:1,2017-01-09T19:00:00Z,26.1914,-97.0507,-2.0,15.87,11111222 
TABS,ioos:station:wmo:42044:1,2017-01-09T19:30:00Z,26.1914,-97.0507,-2.0,15.93,11111222 
TABS,ioos:station:wmo:42044:1,2017-01-09T20:00:00Z,26.1914,-97.0507,-2.0,16.03,11111222 
TABS,ioos:station:wmo:42044:1,2017-01-09T20:30:00Z,26.1914,-97.0507,-2.0,15.9,11111222 
TABS,ioos:station:wmo:42044:1,2017-01-09T21:00:00Z,26.1914,-97.0507,-2.0,15.85,11111222 
TABS,ioos:station:wmo:42044:1,2017-01-09T21:30:00Z,26.1914,-97.0507,-2.0,15.86,11111222 
TABS,ioos:station:wmo:42044:1,2017-01-09T22:00:00Z,26.1914,-97.0507,-2.0,15.86,11111222 
TABS,ioos:station:wmo:42044:1,2017-01-09T22:30:00Z,26.1914,-97.0507,-2.0,15.87,11111222 
TABS,ioos:station:wmo:42044:1,2017-01-09T23:00:00Z,26.1914,-97.0507,-2.0,15.92,11111222 
TABS,ioos:station:wmo:42044:1,2017-01-09T23:30:00Z,26.1914,-97.0507,-2.0,16.0,11111222 
TABS,ioos:station:wmo:42044:1,2017-01-10T00:00:00Z,26.1914,-97.0507,-2.0,16.19,11111222 
TABS,ioos:station:wmo:42044:1,2017-01-10T00:30:00Z,26.1914,-97.0507,-2.0,16.18,11111222 
TABS,ioos:station:wmo:42044:1,2017-01-10T01:00:00Z,26.1914,-97.0507,-2.0,16.09,11111222 
TABS,ioos:station:wmo:42044:1,2017-01-10T01:30:00Z,26.1914,-97.0507,-2.0,16.07,11111222 
TABS,ioos:station:wmo:42044:1,2017-01-10T02:00:00Z,26.1914,-97.0507,-2.0,16.04,11111222 
TABS,ioos:station:wmo:42044:1,2017-01-10T02:30:00Z,26.1914,-97.0507,-2.0,16.01,11111222 
TABS,ioos:station:wmo:42044:1,2017-01-10T03:00:00Z,26.1914,-97.0507,-2.0,15.97,11111222 
TABS,ioos:station:wmo:42044:1,2017-01-10T03:30:00Z,26.1914,-97.0507,-2.0,16.01,11111222 
TABS,ioos:station:wmo:42044:1,2017-01-10T04:00:00Z,26.1914,-97.0507,-2.0,16.04,11111222 
TABS,ioos:station:wmo:42044:1,2017-01-10T04:30:00Z,26.1914,-97.0507,-2.0,16.01,11111222 
TABS,ioos:station:wmo:42044:1,2017-01-10T05:00:00Z,26.1914,-97.0507,-2.0,15.98,11111222 
TABS,ioos:station:wmo:42044:1,2017-01-10T05:30:00Z,26.1914,-97.0507,-2.0,16.01,11111222 
TABS,ioos:station:wmo:42044:1,2017-01-10T06:00:00Z,26.1914,-97.0507,-2.0,16.03,11111222 
TABS,ioos:station:wmo:42044:1,2017-01-10T06:30:00Z,26.1914,-97.0507,-2.0,16.02,11111222 
TABS,ioos:station:wmo:42044:1,2017-01-10T07:00:00Z,26.1914,-97.0507,-2.0,16.0,11111222 
TABS,ioos:station:wmo:42044:1,2017-01-10T07:30:00Z,26.1914,-97.0507,-2.0,15.98,11111222 
TABS,ioos:station:wmo:42044:1,2017-01-10T08:00:00Z,26.1914,-97.0507,-2.0,15.96,11111222 
TABS,ioos:station:wmo:42044:1,2017-01-10T08:30:00Z,26.1914,-97.0507,-2.0,15.94,11111222 
TABS,ioos:station:wmo:42044:1,2017-01-10T09:00:00Z,26.1914,-97.0507,-2.0,15.92,11111222 
TABS,ioos:station:wmo:42044:1,2017-01-10T09:30:00Z,26.1914,-97.0507,-2.0,15.88,11111222 
TABS,ioos:station:wmo:42044:1,2017-01-10T10:00:00Z,26.1914,-97.0507,-2.0,15.86,11111222 
TABS,ioos:station:wmo:42044:1,2017-01-10T10:30:00Z,26.1914,-97.0507,-2.0,15.78,11111222 
TABS,ioos:station:wmo:42044:1,2017-01-10T11:00:00Z,26.1914,-97.0507,-2.0,15.67,11111222 
TABS,ioos:station:wmo:42044:1,2017-01-10T11:30:00Z,26.1914,-97.0507,-2.0,15.66,11111222 
TABS,ioos:station:wmo:42044:1,2017-01-10T12:00:00Z,26.1914,-97.0507,-2.0,15.62,11111222 
TABS,ioos:station:wmo:42044:1,2017-01-10T12:30:00Z,26.1914,-97.0507,-2.0,15.58,11111222 
TABS,ioos:station:wmo:42044:1,2017-01-10T13:00:00Z,26.1914,-97.0507,-2.0,15.55,11111222 
TABS,ioos:station:wmo:42044:1,2017-01-10T13:30:00Z,26.1914,-97.0507,-2.0,15.53,11111222 
TABS,ioos:station:wmo:42044:1,2017-01-10T14:00:00Z,26.1914,-97.0507,-2.0,15.49,11111222 